This is the latest recevied weather packets stored in our database for station/object JS2WAD-13. If no packets are shown the sender has not sent any weather packets the latest 10 day(s).
| Time | Temp. | Humidity | Pressure | Rain* | Wind** | Luminosity | Snow |
|---|---|---|---|---|---|---|---|
| 1777884086 | 16.67° C | 68% | 900.5 hPa | 0.25 mm | - | 26 W/m² | - |
| 1777883787 | 16.67° C | 71% | 900.5 hPa | 0.25 mm | - | 25 W/m² | - |
| 1777883487 | 16.11° C | 69% | 900.6 hPa | 0.25 mm | - | 23 W/m² | - |
| 1777883187 | 16.11° C | 72% | 900.5 hPa | 0.25 mm | - | 25 W/m² | - |
| 1777882887 | 16.11° C | 73% | 900.3 hPa | 0.25 mm | - | 33 W/m² | - |
| 1777882587 | 16.11° C | 78% | 900.3 hPa | 0.25 mm | - | 49 W/m² | - |
| 1777882287 | 16.11° C | 76% | 900.3 hPa | 0.25 mm | - | 35 W/m² | - |
| 1777881987 | 16.11° C | 77% | 900.3 hPa | 0.25 mm | - | 19 W/m² | - |
| 1777881687 | 16.11° C | 77% | 900.3 hPa | 0.25 mm | - | 19 W/m² | - |
| 1777881387 | 16.67° C | 76% | 900.3 hPa | 0.25 mm | - | 26 W/m² | - |
| 1777881087 | 16.67° C | 71% | 900 hPa | 0 mm | - | 33 W/m² | - |
| 1777880787 | 17.22° C | 70% | 899.8 hPa | 0 mm | - | 37 W/m² | - |
| 1777880487 | 17.78° C | 69% | 899.8 hPa | 0 mm | - | 26 W/m² | - |
| 1777880187 | 17.78° C | 67% | 899.5 hPa | 0 mm | - | 40 W/m² | - |
| 1777879887 | 18.33° C | 62% | 899.3 hPa | 0 mm | - | 44 W/m² | - |
| 1777879587 | 18.33° C | 61% | 899 hPa | 0 mm | - | 51 W/m² | - |
| 1777879287 | 18.33° C | 62% | 898.8 hPa | 0 mm | - | 84 W/m² | - |
| 1777878987 | 18.33° C | 61% | 898.8 hPa | 0 mm | - | 77 W/m² | - |
| 1777878687 | 18.33° C | 59% | 898.8 hPa | 0 mm | - | 86 W/m² | - |
| 1777878387 | 18.89° C | 59% | 899.1 hPa | 0 mm | - | 163 W/m² | - |
| 1777878087 | 19.44° C | 58% | 898.6 hPa | 0 mm | - | 169 W/m² | - |
| 1777877787 | 20° C | 61% | 898.6 hPa | 0 mm | - | 439 W/m² | - |
| 1777877487 | 20° C | 60% | 898.4 hPa | 0 mm | - | 244 W/m² | - |
| 1777877187 | 20° C | 56% | 898.3 hPa | 0 mm | - | 272 W/m² | - |
| 1777876887 | 20° C | 56% | 898.2 hPa | 0 mm | - | 153 W/m² | - |
* Rain latest hour (hover to see other rain measurements)
** Current wind speed in m/s (hover to see current wind gust speed)